Dalaman, Turkey

4:31 PM EEST on July 26, 2016 (GMT +0300)
Dalaman

Weather History for LTBS - November, 2012

Change the Weather History Date:

Wednesday, November 14, 2012

  Actual Average Record
Temperature  
Mean Temperature 60 °F -  
Max Temperature 73 °F 64 °F 77 °F (2004)
Min Temperature 48 °F 46 °F 42 °F (2005)
Degree Days  
Heating Degree Days 4    
Growing Degree Days 10 (Base 50)    
Moisture  
Dew Point 53 °F    
Average Humidity 80    
Maximum Humidity 100    
Minimum Humidity 47    
Precipitation  
Precipitation 0.00 in - - ()
Sea Level Pressure  
Sea Level Pressure 30.03 in    
Wind  
Wind Speed 5 mph ()    
Max Wind Speed 9 mph    
Max Gust Speed -    
Visibility 6.1 miles    
Events      
Averages and records for this station are not official NWS values.
T = Trace of Precipitation, MM = Missing Value Source: Averaged Metar Reports

Daily Weather History Graph

Daily Weather History Graph

Search for Another Location

Airport or City:

Trip Planner

Search our weather history database for the weather conditions in past years. The results will help you decide how hot, cold, wet, or windy it might be!

Date:

Astronomy

Nov. 14, 2012 Rise Set
Actual Time 6:41 AM EET 4:56 PM EET
Civil Twilight 6:14 AM EET 5:23 PM EET
Nautical Twilight 5:43 AM EET 5:54 PM EET
Astronomical Twilight 5:12 AM EET 6:25 PM EET
Moon 7:06 AM EET (11/14) 5:27 PM EET (11/14)
Length of Visible Light 11h 09m
Length of Day
10h 14m
New Moon, 0% of the Moon is Illuminated
Nov 14
New Moon
Nov 20
First Quarter
Nov 28
Full
Dec 6
Last Quarter
Dec 13
New

Hourly Weather History & Observations

Time (EET) Temp. Dew Point Humidity Pressure Visibility Wind Dir Wind Speed Gust Speed Precip Events Conditions
12:20 AM 51.8 °F 50.0 °F 94% 30.04 in - NE 4.6 mph - N/A   Clear
12:50 AM 51.8 °F 50.0 °F 94% 30.01 in - NNE 5.8 mph - N/A   Clear
1:20 AM 53.6 °F 50.0 °F 88% 30.01 in - NE 5.8 mph - N/A   Clear
1:50 AM 51.8 °F 50.0 °F 94% 30.01 in - ENE 4.6 mph - N/A   Clear
2:00 AM 52 °F 50 °F 89% 30.04 in 6 mi ENE 4.6 mph - -  
2:20 AM 51.8 °F 50.0 °F 94% 30.04 in - NNE 6.9 mph - N/A   Clear
2:50 AM 51.8 °F 48.2 °F 88% 30.04 in - NE 4.6 mph - N/A   Clear
3:20 AM 51.8 °F 50.0 °F 94% 30.01 in - NNE 5.8 mph - N/A   Clear
3:50 AM 51.8 °F 48.2 °F 88% 30.01 in - NE 3.5 mph - N/A   Clear
4:20 AM 50.0 °F 48.2 °F 94% 30.01 in - NE 5.8 mph - N/A   Clear
4:50 AM 50.0 °F 48.2 °F 94% 30.01 in - ENE 3.5 mph - N/A   Clear
5:20 AM 50.0 °F 48.2 °F 94% 30.04 in - NNE 6.9 mph - N/A   Clear
5:50 AM 48.2 °F 46.4 °F 93% 30.01 in - NE 6.9 mph - N/A   Clear
6:20 AM 48.2 °F 48.2 °F 100% 30.04 in - NNE 4.6 mph - N/A   Clear
6:50 AM 48.2 °F 46.4 °F 93% 30.04 in - NNE 5.8 mph - N/A   Clear
7:20 AM 50.0 °F 48.2 °F 94% 30.04 in - ENE 4.6 mph - N/A   Clear
7:50 AM 51.8 °F 50.0 °F 94% 30.04 in - ENE 4.6 mph - N/A   Clear
8:00 AM 52 °F 49 °F 85% 30.04 in 6 mi ENE 4.6 mph - -  
8:20 AM 57.2 °F 51.8 °F 82% 30.04 in - NE 3.5 mph - N/A   Clear
8:50 AM 60.8 °F 50.0 °F 68% 30.04 in - NE 4.6 mph - N/A   Clear
9:20 AM 64.4 °F 50.0 °F 59% 30.04 in - ENE 4.6 mph - N/A   Clear
9:50 AM 66.2 °F 50.0 °F 56% 30.04 in - ENE 4.6 mph - N/A   Clear
10:20 AM 68.0 °F 51.8 °F 56% 30.04 in - NNE 4.6 mph - N/A   Clear
10:50 AM 69.8 °F 50.0 °F 49% 30.04 in - Variable 2.3 mph - N/A   Clear
11:20 AM 73.4 °F 51.8 °F 47% 30.04 in - Calm Calm - N/A   Clear
11:50 AM 73.4 °F 55.4 °F 53% 30.04 in 6.2 mi SSW 4.6 mph - N/A   Partly Cloudy
12:20 PM 71.6 °F 55.4 °F 57% 30.04 in 6.2 mi SSW 8.1 mph - N/A   Partly Cloudy
12:50 PM 71.6 °F 57.2 °F 60% 30.01 in 6.2 mi SW 9.2 mph - N/A   Partly Cloudy
1:20 PM 71.6 °F 59.0 °F 64% 30.01 in 6.2 mi SW 8.1 mph - N/A   Partly Cloudy
1:50 PM 71.6 °F 57.2 °F 60% 30.01 in 6.2 mi SW 6.9 mph - N/A   Partly Cloudy
2:00 PM 71 °F 58 °F 54% 30.03 in 6 mi SW 6.9 mph - -   Scattered Clouds
2:20 PM 71.6 °F 59.0 °F 64% 30.01 in 6.2 mi SW 6.9 mph - N/A   Partly Cloudy
2:50 PM 69.8 °F 57.2 °F 64% 30.01 in 6.2 mi SW 8.1 mph - N/A   Partly Cloudy
3:20 PM 71.6 °F 57.2 °F 60% 30.01 in 6.2 mi SW 5.8 mph - N/A   Partly Cloudy
3:50 PM 71.6 °F 55.4 °F 57% 30.01 in 6.2 mi SSW 4.6 mph - N/A   Partly Cloudy
4:20 PM 69.8 °F 55.4 °F 60% 30.01 in 6.2 mi SW 4.6 mph - N/A   Partly Cloudy
4:50 PM 68.0 °F 55.4 °F 64% 30.01 in - South 4.6 mph - N/A   Clear
5:20 PM 64.4 °F 57.2 °F 77% 30.01 in - ESE 4.6 mph - N/A   Clear
5:50 PM 62.6 °F 57.2 °F 82% 30.01 in - East 3.5 mph - N/A   Clear
6:20 PM 60.8 °F 57.2 °F 88% 30.04 in - East 3.5 mph - N/A   Clear
6:50 PM 59.0 °F 57.2 °F 94% 30.04 in - NNE 4.6 mph - N/A   Clear
7:20 PM 57.2 °F 55.4 °F 94% 30.04 in - NE 4.6 mph - N/A   Clear
7:50 PM 59.0 °F 55.4 °F 88% 30.04 in - NE 4.6 mph - N/A   Clear
8:00 PM 58 °F 55 °F 86% 30.06 in 6 mi NE 4.6 mph - -  
8:20 PM 57.2 °F 55.4 °F 94% 30.04 in - NE 4.6 mph - N/A   Clear
8:50 PM 57.2 °F 55.4 °F 94% 30.04 in - NE 4.6 mph - N/A   Clear
9:20 PM 57.2 °F 55.4 °F 94% 30.04 in - NNE 5.8 mph - N/A   Clear
9:50 PM 55.4 °F 53.6 °F 94% 30.04 in - NNE 4.6 mph - N/A   Clear
10:20 PM 55.4 °F 53.6 °F 94% 30.06 in - NE 4.6 mph - N/A   Clear
10:50 PM 55.4 °F 53.6 °F 94% 30.06 in - NE 5.8 mph - N/A   Clear
11:20 PM 55.4 °F 53.6 °F 94% 30.06 in - NNE 6.9 mph - N/A   Clear
11:50 PM 55.4 °F 53.6 °F 94% 30.06 in - NE 4.6 mph - N/A   Clear